Regional Weather Roundup
Issued by NWS

Home | Current Version | Previous Version | Text Only | Print | Product List | Glossary On
Versions: 1 2 3 4 5 6 7 8 9 10 11 12 13 14 15 16 17 18 19 20 21 22 23 24 25 26 27 28 29 30 31 32 33 34 35 36 37 38 39 40 41 42 43 44 45 46 47 48 49 50
000
ASUS43 KLOT 200308
RWRIL

ILLINOIS REGIONAL WEATHER ROUNDUP
NATIONAL WEATHER SERVICE CHICAGO/ROMEOVILLE IL
900 PM CST FRI JAN 19 2018

NOTE: "FAIR" INDICATES FEW OR NO CLOUDS BELOW 12,000 FEET WITH NO
SIGNIFICANT WEATHER AND/OR OBSTRUCTIONS TO VISIBILITY.

* THESE STATIONS ARE NOT UNDER NWS QUALITY CONTROL. THEY ALSO MAY NOT
  REPORT WEATHER SUCH AS PRECIPITATION OR FOG.

ILZ001-002-007-009-015-016-024-200400-
NORTHWEST ILLINOIS

CITY           SKY/WX    TMP DP  RH WIND       PRES   REMARKS
MOLINE         FAIR      44  28  53 SW15G24   29.74R
STERLING*      FAIR      39  29  67 SW7       29.76R WCI  34
SAVANNA*       FAIR      40  29  64 SW6       29.75R
$$

ILZ003-004-008-010-011-017-018-200400-
NORTH CENTRAL ILLINOIS

CITY           SKY/WX    TMP DP  RH WIND       PRES   REMARKS
ROCKFORD       CLOUDY    41  27  57 SW13      29.75R
FREEPORT*      FAIR      37  29  74 SW15      29.74R WCI  28
ROCHELLE*      FAIR      37  30  76 SW9       29.76R WCI  30
DE KALB*       FAIR      35  30  82 S10       29.75R WCI  27
PERU*          FAIR      43  26  51 SW25      29.76R
$$

ILZ005-006-012>014-019>023-200400-
NORTHEAST ILLINOIS

CITY           SKY/WX    TMP DP  RH WIND       PRES   REMARKS
CHICAGO-OHARE  CLOUDY    40  28  62 SW20G32   29.72R
CHICAGO-MIDWAY CLOUDY    39  29  67 SW20G31   29.74F WCI  29
AURORA         FAIR      39  29  67 S15       29.76R WCI  31
LANSING*       FAIR      35  30  80 SW18G26   29.79S WCI  25
JOLIET*        FAIR      39  30  69 S14G20    29.79R WCI  31
WAUKEGAN       FAIR      41  28  60 SW20G29   29.69R
DUPAGE AIRPORT FAIR      37  30  75 SW17G26   29.74R WCI  27
KANKAKEE*      FAIR     N/A N/A N/A SW17G25   29.84R
WHEELING       FAIR      41  29  62 SW14G21   29.73R
MORRIS*        FAIR      37  29  72 SW15      29.77S WCI  28
ROMEOVILLE*    FAIR      37  30  73 SW16      29.77R WCI  28
NORTHERLY ISL    N/A     39  27  62 SW20        N/A  WCI  29
$$

LMZ740>746-200400-
SOUTHERN LAKE MICHIGAN

STATION/POSITION SKY/WX   TEMP    WIND        PRES    VSBY  WAVE
                          AIR SEA DIR/SP/G                  HT/PER
                          (F)     (DEG/KT/KT) (MB)    (MI)  (FT/S)
HARRISON CRIB              40     210/ 32/ 36   N/A
BURNHAM HARBOR             39     220/ 10/ 18   N/A
CALUMET HARBOR             38     200/ 19/ 27 1006.8F
BURNS HARBOR               36     190/ 21/ 26 1008.5S
MICHIGAN CITY              37     190/ 29/ 35   N/A
$$

ILZ025>027-034>036-040-047-049-050-058-095>099-200400-
WEST-CENTRAL ILLINOIS

CITY           SKY/WX    TMP DP  RH WIND       PRES   REMARKS
QUINCY         CLOUDY    44  26  49 S16       29.83R
GALESBURG*     FAIR      41  30  66 S14       29.80R
MACOMB*        CLOUDY    42  28  57 SW15G21   29.82S
JACKSONVILLE*  CLOUDY    44  24  45 S15       29.85S
PITTSFIELD*    PTCLDY    46  26  47 S14       29.86S
$$

ILZ028>032-037-038-041>044-048-051>054-059>061-200400-
CENTRAL ILLINOIS

CITY           SKY/WX    TMP DP  RH WIND       PRES   REMARKS
PONTIAC        FAIR      38  31  74 S22G28    29.81S WCI  28
BLOOMINGTON    FAIR      36  28  73 S22       29.83F WCI  25
DECATUR        FAIR      36  28  73 S20G26    29.89S WCI  25
PEORIA         FAIR      38  28  67 S14       29.81S WCI  30
LACON*         FAIR      42  26  52 SW12G18   29.78S
LINCOLN*       FAIR      37  30  75 S14       29.86S WCI  28
SPRINGFIELD    FAIR      38  27  64 S12       29.87S WCI  30
TAYLORVILLE    FAIR      35  27  74 S17G26    29.90S WCI  25
$$

ILZ033-039-045-046-055>057-062-063-200400-
EAST-CENTRAL ILLINOIS

CITY           SKY/WX    TMP DP  RH WIND       PRES   REMARKS
CHAMPAIGN      FAIR      33  27  78 S16       29.89F WCI  23
DANVILLE*      FAIR      33  24  68 S22G31    29.87F WCI  21
RANTOUL*       FAIR      36  30  79 S10       29.88F WCI  28
MATTOON        FAIR      34  25  69 S13       29.92F WCI  25
PARIS*         FAIR      34  25  69 S18G26    29.95S WCI  23
$$

ILZ079-100>102-200400-
SOUTHWEST ILLINOIS

CITY           SKY/WX    TMP DP  RH WIND       PRES   REMARKS
ALTON          CLEAR     37  27  65 S12       29.94R WCI  30
BELLEVILLE     CLOUDY    35  27  72 S9        29.95S WCI  28
CAHOKIA*       CLOUDY    39  24  55 S8        29.95R WCI  33
SPARTA*        CLOUDY    34  28  79 S12G20    29.99F WCI  26
$$

ILZ064>066-069>071-074>076-080>082-084>086-088>090-092>094-200400-
SOUTH-CENTRAL ILLINOIS

CITY           SKY/WX    TMP DP  RH WIND       PRES   REMARKS
CARBONDALE     FAIR      35  23  61 SW14      30.03F WCI  26
CAIRO*         FAIR      35  24  64 S6        30.10S WCI  30
EFFINGHAM*     FAIR      35  26  69 S9        29.98S WCI  28
MARION         FAIR      36  19  50 SW13G21   30.04S WCI  27
MT. VERNON     FAIR      34  24  67 SW14      30.01S WCI  25
CENTRALIA*     CLOUDY    35  29  76 S16G22    29.98S WCI  26
SALEM*         FAIR      37  28  70 S12       29.98S WCI  29
METROPOLIS*    CLOUDY    39  22  51 S14       30.09S WCI  31
$$

ILZ067-068-072-073-078-083-087-091-200400-
SOUTHEAST ILLINOIS

CITY           SKY/WX    TMP DP  RH WIND       PRES   REMARKS
LAWRENCEVILLE  FAIR      32  21  64 S13       30.02F WCI  22
FLORA*         FAIR      36  25  66 S14       30.00S WCI  27
FAIRFIELD*     FAIR      33  23  68 S6        30.01F WCI  27
HARRISBURG*    FAIR      37  23  57 SW14      30.04F WCI  28
ROBINSON*      FAIR      33  22  62 S10       30.01R WCI  25
CARMI*         FAIR      34  22  62 S9        30.04R WCI  26
$$

ABBREVIATIONS USED IN REMARKS
   TC - TEMPERATURE IN CELSIUS
  WCI - WIND CHILL INDEX
   HX - HEAT INDEX
  VSB - VISIBILITY
$$





USA.gov is the U.S. government's official web portal to all federal, state and local government web resources and services.